When you browse on this site, cookies collect data to enhance your experience and personalize the content and advertising you see.
Visit our Privacy Policy to learn more. By continuing to use the site, you agree to this use of cookies and data.
  • In Switzerland
  • List of Countries
  • For 7 days
  • Water Temperature
  • Weather Map
  • Weather Widgets
  • user-avatar
    Login

    Hourly Weather Port-au-Princ

    Today, 20 October, Sunday

    Time Temperature Precipitation Wind Pressure Humidity
    00:00 +25°C° 0 mm 1 mps 735 mmHg 84%
    01:00 +25°C° 0 mm 1 mps 735 mmHg 85%
    02:00 +25°C° 0 mm 1 mps 735 mmHg 85%
    03:00 +25°C° 0 mm 2 mps 735 mmHg 84%
    04:00 +25°C° 0 mm 2 mps 734 mmHg 84%
    05:00 +25°C° 0 mm 2 mps 735 mmHg 83%
    06:00 +26°C° 0 mm 2 mps 735 mmHg 83%
    07:00 +26°C° 0 mm 1 mps 735 mmHg 82%
    08:00 +27°C° 0 mm 2 mps 736 mmHg 78%
    09:00 +28°C° 0 mm 2 mps 736 mmHg 74%
    10:00 +30°C° 0 mm 2 mps 736 mmHg 70%
    11:00 +30°C° 0.4 mm 1 mps 736 mmHg 68%
    12:00 +31°C° 0.4 mm 1 mps 735 mmHg 67%
    13:00 +31°C° 0.4 mm 1 mps 735 mmHg 65%
    14:00 +31°C° 1 mm 1 mps 735 mmHg 68%
    15:00 +30°C° 1 mm 1 mps 734 mmHg 70%
    16:00 +30°C° 1 mm 1 mps 734 mmHg 73%
    17:00 +29°C° 0.2 mm 1 mps 734 mmHg 76%
    18:00 +28°C° 0.2 mm 1 mps 735 mmHg 78%
    19:00 +25°C° 0.2 mm 0 mps 735 mmHg 81%
    20:00 +27°C° 0.1 mm 1 mps 735 mmHg 81%
    21:00 +26°C° 0.1 mm 1 mps 735 mmHg 82%
    22:00 +26°C° 0.1 mm 1 mps 735 mmHg 82%
    23:00 +26°C° 0.1 mm 1 mps 735 mmHg 82%

    Tomorrow, 21 October, Monday

    Time Temperature Precipitation Wind Pressure Humidity
    00:00 +26°C° 0.1 mm 1 mps 735 mmHg 82%
    01:00 +26°C° 0.1 mm 1 mps 735 mmHg 82%
    02:00 +26°C° 0 mm 1 mps 734 mmHg 82%
    03:00 +25°C° 0 mm 1 mps 734 mmHg 82%
    04:00 +25°C° 0 mm 1 mps 734 mmHg 81%
    05:00 +26°C° 0 mm 1 mps 735 mmHg 80%
    06:00 +26°C° 0 mm 1 mps 735 mmHg 79%
    07:00 +27°C° 0 mm 1 mps 735 mmHg 78%
    08:00 +28°C° 0 mm 1 mps 736 mmHg 74%
    09:00 +29°C° 0 mm 1 mps 736 mmHg 70%
    10:00 +31°C° 0 mm 1 mps 736 mmHg 66%
    11:00 +31°C° 0.3 mm 1 mps 736 mmHg 65%
    12:00 +31°C° 0.3 mm 1 mps 735 mmHg 64%
    13:00 +32°C° 0.3 mm 1 mps 735 mmHg 63%
    14:00 +31°C° 0.8 mm 1 mps 735 mmHg 66%
    15:00 +30°C° 0.8 mm 1 mps 734 mmHg 70%
    16:00 +30°C° 0.8 mm 2 mps 734 mmHg 73%
    17:00 +29°C° 0.4 mm 1 mps 734 mmHg 77%
    18:00 +28°C° 0.4 mm 1 mps 735 mmHg 80%
    19:00 +27°C° 0.4 mm 1 mps 735 mmHg 83%
    20:00 +25°C° 0 mm 0 mps 735 mmHg 84%
    21:00 +24°C° 0 mm 0 mps 735 mmHg 84%
    22:00 +24°C° 0 mm 0 mps 735 mmHg 84%
    23:00 +24°C° 0 mm 0 mps 735 mmHg 84%

    Day after tomorrow, 22 October, Tuesday

    Time Temperature Precipitation Wind Pressure Humidity
    00:00 +24°C° 0 mm 0 mps 735 mmHg 84%
    01:00 +23°C° 0 mm 0 mps 735 mmHg 85%
    02:00 +23°C° 0 mm 0 mps 735 mmHg 85%
    03:00 +25°C° 0 mm 1 mps 734 mmHg 86%
    04:00 +25°C° 0 mm 1 mps 734 mmHg 86%
    05:00 +26°C° 0 mm 1 mps 735 mmHg 85%
    06:00 +26°C° 0 mm 1 mps 735 mmHg 85%
    07:00 +26°C° 0 mm 1 mps 735 mmHg 84%
    08:00 +27°C° 0 mm 1 mps 735 mmHg 80%
    09:00 +29°C° 0 mm 1 mps 736 mmHg 76%
    10:00 +30°C° 0 mm 1 mps 736 mmHg 71%
    11:00 +30°C° 0.2 mm 1 mps 735 mmHg 71%
    12:00 +30°C° 0.2 mm 2 mps 735 mmHg 70%
    13:00 +31°C° 0.2 mm 2 mps 734 mmHg 69%
    14:00 +30°C° 0.6 mm 1 mps 734 mmHg 71%
    15:00 +30°C° 0.6 mm 1 mps 733 mmHg 74%
    16:00 +29°C° 0.6 mm 1 mps 733 mmHg 76%
    17:00 +29°C° 0.6 mm 1 mps 733 mmHg 78%
    18:00 +28°C° 0.6 mm 1 mps 734 mmHg 81%
    19:00 +25°C° 0.6 mm 0 mps 734 mmHg 83%
    20:00 +25°C° 0.2 mm 0 mps 734 mmHg 84%
    21:00 +24°C° 0.2 mm 0 mps 734 mmHg 84%
    22:00 +24°C° 0.2 mm 0 mps 734 mmHg 85%
    23:00 +24°C° 0.1 mm 0 mps 734 mmHg 85%

    23 October, Wednesday

    Time Temperature Precipitation Wind Pressure Humidity
    00:00 +23°C° 0.1 mm 0 mps 734 mmHg 86%
    01:00 +25°C° 0.1 mm 1 mps 734 mmHg 86%
    02:00 +25°C° 0 mm 1 mps 733 mmHg 87%
    03:00 +25°C° 0 mm 1 mps 733 mmHg 87%
    04:00 +25°C° 0 mm 1 mps 733 mmHg 88%
    05:00 +25°C° 0 mm 1 mps 734 mmHg 86%
    06:00 +25°C° 0 mm 1 mps 734 mmHg 85%
    07:00 +26°C° 0 mm 1 mps 734 mmHg 84%
    08:00 +27°C° 0 mm 1 mps 735 mmHg 79%
    09:00 +28°C° 0 mm 1 mps 735 mmHg 74%
    10:00 +29°C° 0 mm 1 mps 735 mmHg 70%
    11:00 +30°C° 0.1 mm 1 mps 735 mmHg 68%
    12:00 +30°C° 0.1 mm 1 mps 734 mmHg 67%
    13:00 +31°C° 0.1 mm 1 mps 734 mmHg 66%
    14:00 +30°C° 0.4 mm 1 mps 733 mmHg 68%
    15:00 +30°C° 0.4 mm 1 mps 733 mmHg 71%
    16:00 +29°C° 0.4 mm 1 mps 733 mmHg 73%
    17:00 +28°C° 0.2 mm 1 mps 733 mmHg 76%
    18:00 +26°C° 0.2 mm 0 mps 733 mmHg 79%
    19:00 +25°C° 0.2 mm 0 mps 733 mmHg 82%
    20:00 +24°C° 0 mm 0 mps 734 mmHg 83%
    21:00 +26°C° 0 mm 1 mps 734 mmHg 83%
    22:00 +26°C° 0 mm 1 mps 734 mmHg 83%
    23:00 +26°C° 0 mm 1 mps 734 mmHg 84%

    24 October, Thursday

    Time Temperature Precipitation Wind Pressure Humidity
    00:00 +25°C° 0 mm 1 mps 734 mmHg 84%
    01:00 +25°C° 0 mm 1 mps 733 mmHg 84%
    02:00 +25°C° 0 mm 1 mps 733 mmHg 84%
    03:00 +25°C° 0 mm 1 mps 733 mmHg 85%
    04:00 +25°C° 0 mm 1 mps 733 mmHg 85%
    05:00 +25°C° 0 mm 1 mps 734 mmHg 84%
    06:00 +25°C° 0 mm 1 mps 734 mmHg 83%
    07:00 +26°C° 0 mm 2 mps 734 mmHg 83%
    08:00 +27°C° 0 mm 2 mps 735 mmHg 77%
    09:00 +28°C° 0 mm 2 mps 735 mmHg 72%
    10:00 +30°C° 0 mm 1 mps 736 mmHg 66%
    11:00 +30°C° 0.2 mm 1 mps 735 mmHg 64%
    12:00 +30°C° 0.2 mm 1 mps 735 mmHg 63%
    13:00 +31°C° 0.2 mm 1 mps 734 mmHg 61%
    14:00 +30°C° 0.5 mm 1 mps 734 mmHg 64%
    15:00 +30°C° 0.5 mm 1 mps 734 mmHg 68%
    16:00 +30°C° 0.5 mm 1 mps 733 mmHg 71%
    17:00 +28°C° 0.2 mm 1 mps 734 mmHg 74%
    18:00 +27°C° 0.2 mm 1 mps 734 mmHg 77%
    19:00 +26°C° 0.2 mm 1 mps 734 mmHg 79%
    20:00 +26°C° 0 mm 1 mps 734 mmHg 79%
    21:00 +26°C° 0 mm 1 mps 735 mmHg 79%
    22:00 +25°C° 0 mm 2 mps 735 mmHg 79%
    23:00 +25°C° 0 mm 1 mps 735 mmHg 78%

    25 October, Friday

    Time Temperature Precipitation Wind Pressure Humidity
    00:00 +25°C° 0 mm 1 mps 734 mmHg 78%
    01:00 +25°C° 0 mm 1 mps 734 mmHg 77%
    02:00 +25°C° 0 mm 1 mps 734 mmHg 77%
    03:00 +24°C° 0 mm 1 mps 734 mmHg 77%
    04:00 +24°C° 0 mm 1 mps 734 mmHg 77%
    05:00 +25°C° 0 mm 1 mps 734 mmHg 77%
    06:00 +25°C° 0 mm 1 mps 734 mmHg 77%
    07:00 +26°C° 0 mm 1 mps 735 mmHg 76%
    08:00 +27°C° 0 mm 1 mps 735 mmHg 72%
    09:00 +29°C° 0 mm 1 mps 735 mmHg 68%
    10:00 +30°C° 0 mm 1 mps 736 mmHg 63%
    11:00 +30°C° 0 mm 1 mps 735 mmHg 61%
    12:00 +31°C° 0 mm 2 mps 735 mmHg 59%
    13:00 +31°C° 0 mm 2 mps 734 mmHg 57%
    14:00 +31°C° 0 mm 1 mps 734 mmHg 61%
    15:00 +30°C° 0 mm 1 mps 733 mmHg 66%
    16:00 +30°C° 0 mm 1 mps 733 mmHg 70%
    17:00 +29°C° 0 mm 1 mps 734 mmHg 73%
    18:00 +28°C° 0 mm 1 mps 734 mmHg 76%
    19:00 +26°C° 0 mm 1 mps 734 mmHg 79%
    20:00 +26°C° 0 mm 1 mps 734 mmHg 80%
    21:00 +26°C° 0 mm 1 mps 734 mmHg 81%
    22:00 +26°C° 0 mm 1 mps 734 mmHg 82%
    23:00 +25°C° 0 mm 1 mps 734 mmHg 83%
    Show more